[[{"header":{"parameterUnit":"m.s-1","parameterCategory":1,"la1":30.2991,"la2":30.254,"lo1":-89.0895,"lo2":-89.0444,"dy":0.0017,"dx":0.0017,"nx":28,"ny":28,"refTime":"2024-02-23T03:00:00:Z","depth":0,"parameterNumber":2,"parameterNumberName":"U-component_of_WINDS"},"data":[0,0,0,0,0,0,0,0,0,0,0,0,0,0,0,0,0,0,0,0,0,0,0,0,0,0,0,0,0,0,0,0,0,0,0,0,0,0,0,0,0,0,0,0,0,0,0,0,0,0,0,0,0,0,0,0,0,0,1.9466,1.9466,0,1.9476,1.9476,1.9476,1.9437,1.9436,1.9435,1.9434,1.9447,1.9449,1.945,0,0,0,0,0,0,0,0,0,0,0,0,0,1.9418,1.9419,1.9466,1.9466,1.9466,1.9476,1.9476,1.9476,1.9437,1.9436,1.9435,1.9433,1.9447,1.9449,1.945,0,0,0,0,0,0,0,0,0,0,0,0,0,1.9434,1.9419,1.9466,1.9448,1.9447,1.9476,1.9476,1.9476,1.9438,1.9436,1.9434,1.9433,1.9446,1.9448,1.9451,1.9498,0,0,1.9457,1.9458,0,0,0,0,0,0,0,0,1.9433,1.9436,1.9451,1.9449,1.9448,1.9453,1.9464,1.9484,1.9438,1.9441,1.9434,1.9432,1.9451,1.9453,1.9458,1.9499,1.9499,1.9457,1.9459,1.946,1.946,0,0,0,0,0,0,0,1.9432,1.9436,1.947,1.9451,1.9449,1.9441,1.9441,1.9467,1.9456,1.9441,1.9438,1.944,1.945,1.9456,1.9458,1.95,1.9457,1.9459,1.946,1.9461,1.958,1.9582,0,0,0,0,0,0,1.9433,1.9435,1.947,1.947,1.9436,1.9443,1.9443,1.9453,1.9455,1.9454,1.9441,1.9438,1.9454,1.9456,1.9459,1.9515,1.946,1.9462,1.9463,1.9579,1.9581,1.9583,0,0,0,0,0,0,1.9432,1.9437,1.9469,1.9452,1.9455,1.9446,1.9457,1.9455,1.9461,1.9455,1.9454,1.9449,1.9452,1.9456,1.9489,1.9515,1.9462,1.9464,1.9576,1.9579,1.9582,1.9628,0,0,0,0,0,0,1.9431,1.9436,1.9454,1.9452,1.9456,1.9498,1.9459,1.9456,1.9464,1.946,1.9463,1.9462,1.9451,1.9486,1.9491,1.9517,1.9466,1.9574,1.9578,1.9581,1.9624,1.9632,1.9639,0,0,0,0,0,1.9429,1.9467,1.9455,1.9459,1.9477,1.95,1.9502,1.9488,1.9466,1.9484,1.9481,1.9462,1.9511,1.9489,1.9495,1.9522,1.9572,1.9577,1.9581,1.9621,1.963,1.9639,0,0,0,0,0,0,1.9473,1.9466,1.9453,1.9491,1.9496,1.9493,1.9515,1.9499,1.9511,1.9507,1.949,1.9491,1.9527,1.9528,1.9503,1.9569,1.9538,1.9544,1.9567,1.9576,1.9583,1.9582,1.9468,0,0,0,0,0,1.9486,1.9504,1.9498,1.9532,1.9535,1.9525,1.9534,1.9523,1.9528,1.953,1.9529,1.9536,1.9552,1.9564,1.9579,1.9624,1.9624,1.9645,1.9653,1.9659,1.9664,1.9688,1.9697,1.9597,1.9597,1.9597,0,0,1.9516,1.9514,1.9526,1.9541,1.9543,1.9563,1.9527,1.9549,1.9564,1.9534,1.9564,1.9564,1.957,1.9609,1.9626,1.9611,1.9692,1.9664,1.9669,1.9671,1.9693,1.9703,1.9711,1.96,1.9599,1.9599,0,0,1.9578,1.9579,1.9607,1.9611,1.9615,1.9607,1.9614,1.9614,1.9612,1.9642,1.962,1.9638,1.9668,1.9673,1.968,1.9745,1.9728,1.9751,1.9789,1.9813,1.9821,1.9828,1.9852,1.986,1.9756,1.9756,1.9756,0,1.9614,1.9642,1.9625,1.9648,1.9655,1.9628,1.9658,1.9662,1.9671,1.9678,1.966,1.9696,1.9699,1.9739,1.9755,1.9761,1.9769,1.975,1.9821,1.9828,1.9834,1.9857,1.9866,1.9759,1.9758,1.9758,1.9758,0,1.9686,1.9705,1.9728,1.9737,1.9747,1.9773,1.9761,1.9773,1.9761,1.9757,1.9788,1.979,1.9805,1.9814,1.9803,1.9853,1.9843,1.9823,1.9793,1.9847,1.9868,1.9876,1.9762,1.9761,1.9761,1.976,0,0,1.9776,1.9775,1.9784,1.9787,1.979,1.9805,1.9831,1.9845,1.9856,1.9864,1.9885,1.9911,1.9893,1.99,1.989,1.991,1.9962,1.9888,1.9888,1.9902,2.0018,2.0033,2.0043,1.9951,1.9953,1.9954,2.0018,0,1.9838,1.9881,1.9866,1.991,1.9929,1.9903,1.9925,1.993,1.9926,1.9942,1.9938,1.9957,1.9931,1.9936,1.9955,1.9952,1.9986,1.9947,1.9972,1.9973,1.9972,2.0054,2.007,2.013,2.0026,2.0027,2.0028,0,1.9916,1.9926,1.9971,1.9971,1.9978,1.9998,2.001,2.0025,2.003,2.0026,2.0034,2.0019,2.0046,2.0014,2.0051,2.0025,2.0035,2.0035,2.0037,2.0039,2.0004,2.0059,2.0149,2.0158,2.0041,2.004,2.0039,0,1.9978,2.0003,2.0033,2.0037,2.0037,2.0052,2.0053,2.0056,2.0066,2.0076,2.0083,2.0097,2.0105,2.0116,2.0106,2.0084,2.0144,2.0112,2.0143,2.0143,2.0157,2.0156,2.025,2.0162,2.0162,2.0162,2.0162,0,2.0049,2.0078,2.0061,2.008,2.0112,2.0095,2.0128,2.0126,2.0129,2.0148,2.0127,2.0145,2.013,2.0148,2.014,2.0172,2.0175,2.0173,2.0171,2.0175,2.0176,2.0182,2.0178,2.0164,2.0164,2.0163,2.0163,0,2.0124,2.0113,2.0145,2.0142,2.0142,2.0166,2.0164,2.0182,2.0177,2.0201,2.0206,2.0198,2.0217,2.0207,2.0228,2.0223,2.0264,2.0256,2.0262,2.026,2.0291,2.0288,2.0392,2.0405,2.0309,2.031,2.0311,0,2.017,2.0191,2.0191,2.0201,2.0204,2.0221,2.023,2.0215,2.0226,2.0234,2.0251,2.0268,2.0281,2.0313,2.031,2.0326,2.0318,2.0353,2.032,2.0324,2.0319,2.0318,2.0321,2.036,2.0362,2.0362,2.0363,0,2.0253,2.0246,2.026,2.0272,2.0284,2.0293,2.03,2.031,2.0296,2.0309,2.0328,2.0338,2.0358,2.0376,2.039,2.0392,2.0376,2.0373,2.0381,2.0386,2.0389,2.0389,2.028,2.0371,2.037,2.037,2.0369,2.0369,2.0315,2.0333,2.0335,2.0352,2.0355,2.0363,2.0379,2.0376,2.0391,2.0406,2.0396,2.0419,2.0424,2.0441,2.0445,2.0463,2.0449,2.0461,2.0464,2.0467,2.0471,2.0386,2.0465,2.0465,2.0465,2.0465,2.0465,0,2.0397,2.0397,2.0412,2.0423,2.0436,2.0418,2.0426,2.0438,2.0458,2.0463,2.0476,2.0499,2.0516,2.0514,2.0529,2.0544,2.0537,2.0549,2.0548,2.0549,2.0482,2.0474,2.0555,2.0555,2.0555,2.0554,2.0554,2.0554,2.0441,2.0471,2.0465,2.0497,2.0498,2.0519,2.0525,2.0532,2.0536,2.0561,2.0575,2.0573,2.0576,2.0592,2.0607,2.0606,2.0614,2.0628,2.0625,2.0563,2.0554,2.0545,2.0537,2.063,2.063,2.069,2.069,2.0691]},{"header":{"parameterUnit":"m.s-1","parameterCategory":1,"la1":30.2991,"la2":30.254,"lo1":-89.0895,"lo2":-89.0444,"dy":0.0017,"dx":0.0017,"nx":28,"ny":28,"refTime":"2024-02-23T03:00:00:Z","depth":0,"parameterNumber":3,"parameterNumberName":"V-component_of_WINDS"},"data":[0,0,0,0,0,0,0,0,0,0,0,0,0,0,0,0,0,0,0,0,0,0,0,0,0,0,0,0,0,0,0,0,0,0,0,0,0,0,0,0,0,0,0,0,0,0,0,0,0,0,0,0,0,0,0,0,0,0,3.2383,3.2385,0,3.2551,3.2553,3.2555,3.2572,3.257,3.2568,3.2567,3.274,3.2746,3.2753,0,0,0,0,0,0,0,0,0,0,0,0,0,3.2081,3.2087,3.2383,3.2385,3.2387,3.255,3.2553,3.2555,3.2572,3.257,3.2568,3.2566,3.2738,3.2746,3.2753,0,0,0,0,0,0,0,0,0,0,0,0,0,3.2227,3.2089,3.2383,3.2415,3.242,3.255,3.2553,3.2556,3.2572,3.257,3.2567,3.2565,3.2736,3.2745,3.2754,3.2864,0,0,3.2783,3.2787,0,0,0,0,0,0,0,0,3.2219,3.2238,3.2409,3.2413,3.2419,3.2538,3.251,3.2659,3.2573,3.2515,3.2567,3.2564,3.2675,3.2689,3.2727,3.2872,3.288,3.2784,3.2789,3.2793,3.2796,0,0,0,0,0,0,0,3.2209,3.2231,3.245,3.2411,3.2417,3.2423,3.2441,3.2538,3.2608,3.252,3.2521,3.2541,3.2678,3.2718,3.2731,3.2882,3.2783,3.2792,3.2798,3.2801,3.3128,3.3131,0,0,0,0,0,0,3.2192,3.2222,3.2444,3.2455,3.231,3.243,3.245,3.2502,3.2606,3.262,3.2543,3.2541,3.2703,3.272,3.2737,3.2874,3.2793,3.2802,3.2807,3.3125,3.3129,3.3132,0,0,0,0,0,0,3.2185,3.2212,3.2437,3.2339,3.2368,3.2438,3.2496,3.2507,3.2547,3.2624,3.2637,3.2571,3.2701,3.2724,3.2833,3.288,3.2806,3.2815,3.3122,3.3126,3.3131,3.3148,0,0,0,0,0,0,3.2177,3.2209,3.2251,3.234,3.2373,3.2529,3.2499,3.2512,3.2563,3.2562,3.2654,3.2666,3.2701,3.2819,3.2842,3.2892,3.2822,3.3118,3.3124,3.3129,3.3143,3.3152,3.316,0,0,0,0,0,3.2166,3.2249,3.2253,3.2279,3.2427,3.2532,3.2551,3.2589,3.2566,3.261,3.2659,3.2663,3.2871,3.283,3.2856,3.2909,3.3115,3.3122,3.3129,3.3139,3.3151,3.316,0,0,0,0,0,0,3.2164,3.2261,3.2266,3.238,3.2448,3.2535,3.259,3.2599,3.2675,3.2671,3.2715,3.2736,3.2844,3.2887,3.2839,3.3022,3.2991,3.3003,3.299,3.3001,3.3009,3.2997,3.283,0,0,0,0,0,3.2177,3.2253,3.2334,3.2427,3.2461,3.252,3.2567,3.259,3.2662,3.2691,3.2748,3.2819,3.29,3.2953,3.3031,3.3149,3.317,3.3199,3.3207,3.3214,3.3225,3.3292,3.3306,3.3155,3.3155,3.3155,0,0,3.2204,3.2267,3.2312,3.2429,3.2483,3.2563,3.2544,3.2628,3.2688,3.2704,3.2811,3.2855,3.2937,3.3051,3.3104,3.3091,3.3271,3.3223,3.3227,3.3235,3.3301,3.3315,3.3328,3.316,3.3159,3.3158,0,0,3.2295,3.2349,3.2434,3.2489,3.2573,3.2611,3.2631,3.2717,3.2748,3.2855,3.2869,3.2942,3.308,3.3138,3.3186,3.33,3.3307,3.3324,3.3369,3.3434,3.3446,3.3457,3.35,3.3514,3.3334,3.3334,3.3334,0,3.2319,3.2439,3.2476,3.2561,3.2613,3.263,3.2717,3.2769,3.2874,3.291,3.2893,3.3068,3.3124,3.3253,3.3281,3.3318,3.3344,3.3315,3.3441,3.3452,3.3463,3.3504,3.352,3.3336,3.3336,3.3336,3.3336,0,3.2465,3.2548,3.2606,3.2707,3.2765,3.285,3.2902,3.2956,3.2974,3.3015,3.3126,3.3193,3.3287,3.3319,3.3338,3.3451,3.3441,3.3432,3.3402,3.3479,3.3518,3.3534,3.3338,3.3338,3.3337,3.3337,0,0,3.256,3.2681,3.2702,3.2749,3.2842,3.2908,3.2994,3.3086,3.3132,3.3204,3.3279,3.3396,3.3389,3.3443,3.3469,3.3526,3.3614,3.3511,3.3513,3.3529,3.3746,3.3753,3.3771,3.3619,3.3622,3.3625,3.374,0,3.2664,3.2818,3.2854,3.2987,3.3065,3.3083,3.3159,3.3225,3.3266,3.3339,3.3384,3.3467,3.3451,3.3484,3.3541,3.3591,3.3659,3.3583,3.3691,3.3695,3.3672,3.3791,3.3799,3.3905,3.3755,3.3758,3.376,0,3.2805,3.288,3.302,3.3105,3.3139,3.3206,3.3294,3.3363,3.3439,3.3465,3.3526,3.3546,3.3638,3.3602,3.3731,3.3679,3.3725,3.3757,3.3762,3.3775,3.3733,3.3809,3.3939,3.3956,3.3784,3.3782,3.3781,0,3.2862,3.2998,3.3101,3.314,3.3241,3.3288,3.3332,3.3406,3.3459,3.3535,3.3571,3.3657,3.3705,3.3772,3.3815,3.3784,3.3941,3.3908,3.3967,3.3966,3.4,3.3998,3.4141,3.4027,3.4027,3.4026,3.4026,0,3.2975,3.306,3.3128,3.3191,3.3288,3.333,3.3425,3.347,3.3535,3.3609,3.3629,3.3697,3.3749,3.3825,3.386,3.3963,3.3983,3.4008,3.4017,3.4007,3.4005,3.404,3.4034,3.4031,3.403,3.4029,3.4028,0,3.3056,3.3104,3.3217,3.3304,3.3327,3.3395,3.347,3.3533,3.3574,3.3666,3.369,3.3756,3.3846,3.3895,3.4009,3.4032,3.4148,3.4151,3.4122,3.4126,3.4183,3.4177,3.4355,3.4381,3.4247,3.4249,3.425,0,3.3125,3.3192,3.3285,3.3335,3.3381,3.3461,3.3515,3.3559,3.3615,3.3708,3.376,3.3851,3.3927,3.4071,3.4129,3.4217,3.4224,3.428,3.4237,3.4226,3.4227,3.4223,3.4231,3.4288,3.4289,3.429,3.4291,0,3.3244,3.3265,3.3342,3.3428,3.3492,3.3562,3.3632,3.3672,3.3727,3.3789,3.3882,3.3941,3.4057,3.4149,3.4241,3.4288,3.43,3.4304,3.4322,3.4315,3.4296,3.4309,3.4145,3.43,3.4299,3.4298,3.4298,3.4298,3.3323,3.3383,3.3459,3.3545,3.3602,3.3666,3.373,3.3779,3.3857,3.3955,3.3976,3.4075,3.4151,3.4276,3.4325,3.4404,3.4393,3.4419,3.4426,3.4433,3.4436,3.4282,3.442,3.442,3.442,3.442,3.442,0,3.3444,3.3494,3.3572,3.3669,3.3737,3.3741,3.3818,3.3875,3.3961,3.4031,3.4105,3.4213,3.4302,3.4367,3.4458,3.4509,3.4517,3.4531,3.4529,3.454,3.4439,3.4415,3.4524,3.4524,3.4524,3.4524,3.4524,3.4524,3.3515,3.3619,3.3649,3.3781,3.3831,3.3927,3.3971,3.4032,3.4088,3.4207,3.4281,3.4322,3.4391,3.4488,3.457,3.4587,3.4621,3.4635,3.4653,3.4558,3.4547,3.4536,3.4514,3.4642,3.4642,3.4748,3.4749,3.4749]}]]